Regional Weather Roundup
Issued by NWS

Home | Current Version | Previous Version | Graphics & Text | Print | Product List | Glossary On
Versions: 1 2 3 4 5 6 7 8 9 10 11 12 13 14 15 16 17 18 19 20 21 22 23 24 25 26 27 28 29 30 31 32 33 34 35 36 37 38 39 40 41 42 43 44 45 46 47 48 49 50
000
ASUS44 KMEG 302010
RWRTN
TENNESSEE HOURLY STATE WEATHER ROUNDUP
NATIONAL WEATHER SERVICE MEMPHIS TN
300 PM CDT WED JUL 30 2014

TNZ002-004-019-021-049-052-054-088>092-302100-
WEST TENNESSEE

CITY           SKY/WX    TMP DP  RH WIND       PRES   REMARKS
MEMPHIS INTL   MOSUNNY   84  57  39 SW6       30.09F
NWS MEMPHIS      N/A     84 N/A N/A MISG        N/A
JACKSON        SUNNY     81  56  42 VRB3      30.10F
DYERSBURG      PTSUNNY   82  54  36 CALM      30.10S
UNION CITY     SUNNY     81  57  44 NW3       30.09F
PARIS          PTSUNNY   80  55  42 VRB3      30.11S
LEXINGTON      MOSUNNY   81  55  41 W3        30.10F
SAVANNAH       MOSUNNY   80  57  45 N3        30.10F
$$

TNZ008-025-027-028-033-062-065-066-302100-
NORTH MIDDLE TENNESSEE

CITY           SKY/WX    TMP DP  RH WIND       PRES   REMARKS
NASHVILLE      PTSUNNY   82  54  37 VRB6      30.10S
DICKSON        MOSUNNY   79  52  38 VRB5      30.11F
PORTLAND       SUNNY     79  54  41 W6        30.09F
CLARKSVILLE    PTSUNNY   80  53  39 VRB3      30.09F
LEBANON        MOSUNNY   80  56  43 VRB6      30.08F
SMYRNA         MOSUNNY   86  57  36 VRB6      30.10F
MURFREESBORO   MOSUNNY   79  56  45 CALM      30.09F
COOKEVILLE     MOSUNNY   81  61  50 N3        30.10F
LIVINGSTON       N/A     76  54  46 N5        30.12F
CROSSVILLE     PTSUNNY   76  53  44 VRB3      30.13F
$$

TNZ061-075-076-078-094-096-097-302100-
SOUTH MIDDLE TENNESSEE

CITY           SKY/WX    TMP DP  RH WIND       PRES   REMARKS
LEWISBURG      MOSUNNY   80  57  45 N5        30.10S
FAYETTEVILLE   MOSUNNY   79  57  47 NE9       30.09F
TULLAHOMA      SUNNY     77  57  50 N7        30.11S
WINCHESTER     SUNNY     79  57  47 NE6       30.10S
MCMINNVILLE    MOSUNNY   79  61  53 N6        30.11S
COLUMBIA       MOSUNNY   81  59  47 VRB5      30.09F
SHELBYVILLE    MOSUNNY   81  61  50 VRB6      30.11S
$$

TNZ017-018-042-046-047-302100-
NORTHEAST TENNESSEE

CITY           SKY/WX    TMP DP  RH WIND       PRES   REMARKS
TRI CITIES     MOSUNNY   77  51  40 VRB3      30.11F
ELIZABETHTON   CLEAR     75  52  43 NW7         N/A
$$

TNZ012-013-036-069-073-074-302100-
CENTRAL EAST TENNESSEE

CITY           SKY/WX    TMP DP  RH WIND       PRES   REMARKS
KNOXVILLE      CLOUDY    78  55  44 N8        30.08F
OAK RIDGE      PTSUNNY   78  54  43 MISG      30.10F
GATLINBURG     CLEAR     77  54  44 NE7       30.09S
MORRISTOWN     CLEAR     75  54  46 NE6       30.11F
$$

TNZ083-085-099-302100-
SOUTHEAST TENNESSEE

CITY           SKY/WX    TMP DP  RH WIND       PRES   REMARKS
CHATTANOOGA    PTSUNNY   80  54  40 N8        30.08F
$$

SKY/WX REPORTED AS FAIR MEANS FEW OR NO CLOUDS BELOW
12 THOUSAND FEET.




USA.gov is the U.S. government's official web portal to all federal, state and local government web resources and services.